GW0500 Weather Reports


time (UTC)temp
C
wind
direction
speed
KPH
gust
KPH
rain 1hr
cm
rain 24hr
cm
rain mn
cm
humidity
%
barometer
mb
20260901001048 23 203 4.8 14.5 0.00 0.00 0.00 49 1019.8
20260901000547 23 189 6.4 14.5 0.00 0.00 0.00 49 1019.8
20260831235547 24 156 3.2 12.9 0.00 0.00 0.00 48 1019.9
20260831235047 24 89 4.8 12.9 0.00 0.00 0.00 48 1020.0
20260831234605 24 109 3.2 11.3 0.00 0.00 0.00 49 1019.9
20260831234047 25 161 3.2 11.3 0.00 0.00 0.00 47 1020.0
20260831233547 25 165 3.2 14.5 0.00 0.00 0.00 47 1019.9
20260831233104 25 156 4.8 14.5 0.00 0.00 0.00 46 1019.9
20260831232546 25 156 3.2 14.5 0.00 0.00 0.00 46 1019.9
20260831232047 25 147 3.2 14.5 0.00 0.00 0.00 46 1019.9
20260831231601 25 182 1.6 12.9 0.00 0.00 0.00 45 1019.9
20260831231048 26 220 3.2 11.3 0.00 0.00 0.00 45 1019.9
20260831230548 26 188 1.6 9.7 0.00 0.00 0.00 45 1020.0
20260831230108 26 227 3.2 12.9 0.00 0.00 0.00 45 1020.2
20260831225547 25 228 4.8 17.7 0.00 0.00 0.00 45 1020.0
20260831225048 26 113 4.8 17.7 0.00 0.00 0.00 44 1020.2
20260831224602 26 179 1.6 16.1 0.00 0.00 0.00 45 1020.2
20260831224048 26 166 4.8 16.1 0.00 0.00 0.00 45 1020.2
20260831223548 26 0 1.6 14.5 0.00 0.00 0.00 45 1020.0
20260831223107 26 186 3.2 14.5 0.00 0.00 0.00 45 1020.2
20260831222549 26 146 3.2 14.5 0.00 0.00 0.00 46 1020.2
20260831222048 26 117 4.8 14.5 0.00 0.00 0.00 45 1020.2
20260831221606 26 339 3.2 17.7 0.00 0.00 0.00 45 1020.3
20260831221047 26 202 4.8 17.7 0.00 0.00 0.00 43 1020.3
20260831220547 26 192 3.2 14.5 0.00 0.00 0.00 44 1020.3
20260831220113 26 201 4.8 14.5 0.00 0.00 0.00 45 1020.1
20260831215546 26 229 4.8 16.1 0.00 0.00 0.00 43 1020.2
20260831215047 26 203 4.8 16.1 0.00 0.00 0.00 42 1020.3
20260831214627 26 170 4.8 16.1 0.00 0.00 0.00 41 1020.3
20260831214048 26 160 4.8 17.7 0.00 0.00 0.00 41 1020.3
20260831213547 26 150 4.8 17.7 0.00 0.00 0.00 41 1020.3
20260831213102 26 197 4.8 17.7 0.00 0.00 0.00 40 1020.4
20260831212544 27 142 3.2 17.7 0.00 0.00 0.00 38 1020.5
20260831212046 27 214 3.2 19.3 0.00 0.00 0.00 37 1020.6
20260831211604 27 198 4.8 19.3 0.00 0.00 0.00 36 1020.7
20260831211049 27 168 4.8 14.5 0.00 0.00 0.00 34 1020.6
20260831210550 27 79 3.2 12.9 0.00 0.00 0.00 35 1020.6
20260831210109 27 188 1.6 12.9 0.00 0.00 0.00 36 1020.7
20260831205548 26 146 4.8 12.9 0.00 0.00 0.00 36 1020.8
20260831205045 26 204 3.2 17.7 0.00 0.00 0.00 37 1020.7
20260831204635 26 136 4.8 17.7 0.00 0.00 0.00 34 1021.0
20260831204050 27 215 4.8 17.7 0.00 0.00 0.00 33 1021.0
20260831203549 27 294 3.2 11.3 0.00 0.00 0.00 34 1021.0
20260831203108 27 138 3.2 16.1 0.00 0.00 0.00 36 1021.1
20260831202545 27 0 3.2 16.1 0.00 0.00 0.00 34 1021.1
20260831202048 26 169 1.6 22.5 0.00 0.00 0.00 36 1021.1
20260831201602 26 334 4.8 22.5 0.00 0.00 0.00 36 1021.1
20260831201048 26 169 4.8 16.1 0.00 0.00 0.00 34 1021.0
20260831200550 26 165 4.8 16.1 0.00 0.00 0.00 35 1021.1
20260831200107 26 135 4.8 12.9 0.00 0.00 0.00 34 1021.1
20260831195549 26 173 3.2 12.9 0.00 0.00 0.00 33 1021.0
20260831195050 26 237 3.2 14.5 0.00 0.00 0.00 34 1021.0
20260831194559 26 102 1.6 17.7 0.00 0.00 0.00 35 1021.0
20260831194050 26 221 4.8 17.7 0.00 0.00 0.00 33 1021.2
20260831193551 26 144 4.8 9.7 0.00 0.00 0.00 35 1021.2
20260831193103 26 78 3.2 16.1 0.00 0.00 0.00 37 1021.1
20260831192549 26 181 6.4 19.3 0.00 0.00 0.00 34 1021.2
20260831192047 26 360 4.8 19.3 0.00 0.00 0.00 34 1021.2
20260831191601 26 194 4.8 20.9 0.00 0.00 0.00 36 1021.2
20260831191050 26 213 4.8 20.9 0.00 0.00 0.00 35 1021.3
20260831190548 25 164 6.4 17.7 0.00 0.00 0.00 34 1021.2
20260831190113 25 171 4.8 17.7 0.00 0.00 0.00 33 1021.3
20260831185547 25 118 3.2 12.9 0.00 0.00 0.00 35 1021.1
20260831185047 26 144 4.8 12.9 0.00 0.00 0.00 34 1021.3
20260831184605 25 147 3.2 11.3 0.00 0.00 0.00 34 1021.3
20260831184047 25 204 3.2 19.3 0.00 0.00 0.00 33 1021.1
20260831183546 25 215 4.8 19.3 0.00 0.00 0.00 34 1021.1
20260831183105 25 188 4.8 16.1 0.00 0.00 0.00 32 1021.2
20260831182546 25 224 4.8 11.3 0.00 0.00 0.00 29 1021.2
20260831182045 25 126 3.2 19.3 0.00 0.00 0.00 31 1021.1
20260831181600 25 148 1.6 19.3 0.00 0.00 0.00 31 1021.1
20260831181046 24 147 3.2 19.3 0.00 0.00 0.00 32 1021.1
20260831180547 24 65 4.8 20.9 0.00 0.00 0.00 30 1021.0
20260831180104 24 158 4.8 20.9 0.00 0.00 0.00 30 1021.1
20260831175546 24 17 3.2 9.7 0.00 0.00 0.00 32 1021.0
20260831175048 24 186 3.2 9.7 0.00 0.00 0.00 33 1021.1
20260831174610 24 175 1.6 11.3 0.00 0.00 0.00 30 1020.9
20260831174046 24 0 3.2 11.3 0.00 0.00 0.00 34 1021.0
20260831173549 23 140 1.6 12.9 0.00 0.00 0.00 32 1021.0
20260831173103 23 128 4.8 12.9 0.00 0.00 0.00 32 1020.9
20260831172547 23 302 3.2 12.9 0.00 0.00 0.00 31 1021.0
20260831172045 23 119 1.6 9.7 0.00 0.00 0.00 29 1020.8
20260831171600 23 132 1.6 9.7 0.00 0.00 0.00 31 1021.0
20260831171047 23 159 1.6 11.3 0.00 0.00 0.00 28 1020.9
20260831170546 23 146 3.2 14.5 0.00 0.00 0.00 30 1020.8
20260831170105 23 185 1.6 16.1 0.00 0.00 0.00 28 1020.7
20260831165546 23 141 3.2 16.1 0.00 0.00 0.00 26 1020.6
20260831165046 23 192 4.8 14.5 0.00 0.00 0.00 27 1020.7
20260831164609 23 158 1.6 9.7 0.00 0.00 0.00 30 1020.6
20260831164049 23 159 1.6 14.5 0.00 0.00 0.00 25 1020.7
20260831163545 22 0 0.0 14.5 0.00 0.00 0.00 24 1020.6
20260831163104 22 172 3.2 14.5 0.00 0.00 0.00 26 1020.6
20260831162548 22 131 1.6 11.3 0.00 0.00 0.00 23 1020.6
20260831162049 22 152 1.6 11.3 0.00 0.00 0.00 28 1020.6
20260831161601 22 157 3.2 11.3 0.00 0.00 0.00 22 1020.6
20260831161047 22 179 0.0 8.0 0.00 0.00 0.00 26 1020.6
20260831160547 21 0 1.6 8.0 0.00 0.00 0.00 25 1020.5
20260831160106 21 208 0.0 3.2 0.00 0.00 0.00 23 1020.3
20260831155548 20 0 0.0 8.0 0.00 0.00 0.00 24 1020.3
20260831155048 20 0 0.0 8.0 0.00 0.00 0.00 26 1020.3
20260831154633 19 0 0.0 6.4 0.00 0.00 0.00 27 1020.2
20260831154048 18 0 0.0 6.4 0.00 0.00 0.00 29 1020.2
20260831153547 17 46 1.6 6.4 0.00 0.00 0.00 30 1020.2
20260831153102 17 0 1.6 6.4 0.00 0.00 0.00 30 1020.3
20260831152551 16 326 1.6 4.8 0.00 0.00 0.00 33 1020.3
20260831152046 16 50 0.0 4.8 0.00 0.00 0.00 34 1020.2
20260831151605 16 0 1.6 4.8 0.00 0.00 0.00 34 1020.1
20260831151046 16 42 0.0 4.8 0.00 0.00 0.00 35 1020.1
20260831150544 15 42 0.0 0.0 0.00 0.00 0.00 35 1020.0
20260831145544 15 0 0.0 0.0 0.00 0.00 0.00 35 1020.0
20260831145045 15 0 0.0 0.0 0.00 0.00 0.00 35 1020.0
20260831144604 15 0 0.0 0.0 0.00 0.00 0.00 35 1020.0
20260831144049 15 0 0.0 0.0 0.00 0.00 0.00 36 1020.0
20260831143547 15 0 0.0 1.6 0.00 0.00 0.00 35 1019.9
20260831143110 15 0 0.0 1.6 0.00 0.00 0.00 35 1019.8
20260831142617 15 0 0.0 1.6 0.00 0.00 0.00 36 1019.8
20260831142047 15 0 0.0 1.6 0.00 0.00 0.00 36 1019.6
20260831141603 15 0 0.0 1.6 0.00 0.00 0.00 35 1019.6
20260831141046 15 0 0.0 1.6 0.00 0.00 0.00 35 1019.4
20260831140547 15 0 0.0 0.0 0.00 0.00 0.00 35 1019.4
20260831140101 15 0 0.0 0.0 0.00 0.00 0.00 35 1019.3
20260831135548 15 0 0.0 1.6 0.00 0.00 0.00 34 1019.3
20260831135047 15 0 0.0 3.2 0.00 0.00 0.00 34 1019.2
20260831134604 15 0 0.0 3.2 0.00 0.00 0.00 35 1019.1
20260831134047 15 0 0.0 1.6 0.00 0.00 0.00 35 1019.0
20260831133546 15 0 0.0 3.2 0.00 0.00 0.00 36 1019.0
20260831133102 15 0 0.0 3.2 0.00 0.00 0.00 36 1019.0
20260831132546 15 9 0.0 3.2 0.00 0.00 0.00 37 1018.9
20260831132050 15 17 0.0 3.2 0.00 0.00 0.00 37 1018.8
20260831131602 15 0 0.0 3.2 0.00 0.00 0.00 37 1018.9
20260831131044 15 17 0.0 3.2 0.00 0.00 0.00 37 1018.8
20260831130544 15 0 0.0 1.6 0.00 0.00 0.00 37 1018.8
20260831130118 15 0 0.0 1.6 0.00 0.00 0.00 37 1018.8
20260831125546 15 0 0.0 1.6 0.00 0.00 0.00 36 1018.8
20260831125049 15 0 0.0 1.6 0.00 0.00 0.00 35 1018.8
20260831124603 15 0 0.0 1.6 0.00 0.00 0.00 37 1018.7
20260831124044 15 0 0.0 1.6 0.00 0.00 0.00 38 1018.8
20260831123547 15 0 0.0 1.6 0.00 0.00 0.00 38 1018.8
20260831123101 15 0 0.0 1.6 0.00 0.00 0.00 37 1018.7
20260831122549 15 0 0.0 1.6 0.00 0.00 0.00 36 1018.8
20260831122047 15 0 0.0 1.6 0.00 0.00 0.00 34 1018.7
20260831121606 15 0 0.0 1.6 0.00 0.00 0.00 35 1018.7
20260831121047 15 0 0.0 3.2 0.00 0.00 0.00 37 1018.6
20260831120546 15 0 0.0 3.2 0.00 0.00 0.00 39 1018.6
20260831120105 15 0 0.0 1.6 0.00 0.00 0.00 41 1018.6
20260831115546 15 0 0.0 1.6 0.00 0.00 0.00 42 1018.7
20260831115047 15 0 0.0 1.6 0.00 0.00 0.00 43 1018.7
20260831114602 15 0 0.0 1.6 0.00 0.00 0.00 45 1018.7
20260831114048 15 0 0.0 1.6 0.00 0.00 0.00 42 1018.7
20260831113547 15 0 0.0 1.6 0.00 0.00 0.00 43 1018.8
20260831113137 15 0 0.0 1.6 0.00 0.00 0.00 43 1018.7
20260831112550 15 0 0.0 4.8 0.00 0.00 0.00 43 1018.7
20260831112046 15 0 0.0 4.8 0.00 0.00 0.00 43 1018.7
20260831111600 15 17 0.0 4.8 0.00 0.00 0.00 42 1018.7
20260831111045 15 0 0.0 3.2 0.00 0.00 0.00 43 1018.8
20260831110550 15 0 0.0 3.2 0.00 0.00 0.00 43 1018.8
20260831105547 15 331 0.0 3.2 0.00 0.00 0.00 41 1018.9
20260831105047 15 0 1.6 3.2 0.00 0.00 0.00 44 1018.9
20260831104605 15 331 0.0 3.2 0.00 0.00 0.00 45 1018.8
20260831104048 15 0 0.0 3.2 0.00 0.00 0.00 45 1018.9
20260831103546 15 0 0.0 3.2 0.00 0.00 0.00 45 1018.9
20260831103113 15 0 0.0 3.2 0.00 0.00 0.00 43 1018.9
20260831102546 16 331 0.0 3.2 0.00 0.00 0.00 39 1018.9
20260831102047 16 0 0.0 3.2 0.00 0.00 0.00 42 1018.8
20260831101602 16 0 0.0 3.2 0.00 0.00 0.00 45 1018.9
20260831101046 16 0 0.0 3.2 0.00 0.00 0.00 48 1018.9
20260831100549 16 0 0.0 3.2 0.00 0.00 0.00 46 1018.8
20260831100106 16 331 1.6 3.2 0.00 0.00 0.00 48 1018.9
20260831095547 16 331 0.0 3.2 0.00 0.00 0.00 50 1019.0
20260831095047 16 0 0.0 3.2 0.00 0.00 0.00 51 1019.0
20260831094606 16 331 0.0 3.2 0.00 0.00 0.00 54 1019.1
20260831094048 16 0 0.0 3.2 0.00 0.00 0.00 54 1019.1
20260831093545 16 0 0.0 3.2 0.00 0.00 0.00 53 1019.1
20260831093112 16 0 0.0 1.6 0.00 0.00 0.00 54 1019.2
20260831092545 16 0 0.0 3.2 0.00 0.00 0.00 54 1019.2
20260831092048 16 0 0.0 4.8 0.00 0.00 0.00 53 1019.2
20260831091600 16 40 0.0 4.8 0.00 0.00 0.00 53 1019.2
20260831091050 16 0 1.6 4.8 0.00 0.00 0.00 53 1019.2
20260831090548 16 148 0.0 1.6 0.00 0.00 0.00 55 1019.3
20260831090109 16 0 0.0 3.2 0.00 0.00 0.00 53 1019.3
20260831085549 16 0 0.0 3.2 0.00 0.00 0.00 54 1019.4
20260831085047 16 0 0.0 1.6 0.00 0.00 0.00 54 1019.3
20260831084602 16 148 0.0 1.6 0.00 0.00 0.00 54 1019.4
20260831084045 16 0 0.0 1.6 0.00 0.00 0.00 54 1019.4
20260831083545 16 0 0.0 1.6 0.00 0.00 0.00 55 1019.5
20260831083109 16 0 0.0 3.2 0.00 0.00 0.00 55 1019.5
20260831082547 16 0 0.0 3.2 0.00 0.00 0.00 55 1019.6
20260831082046 16 0 0.0 1.6 0.00 0.00 0.00 56 1019.6
20260831081609 16 0 0.0 1.6 0.00 0.00 0.00 56 1019.6
20260831081046 16 0 0.0 1.6 0.00 0.00 0.00 55 1019.7
20260831080546 16 0 0.0 1.6 0.00 0.00 0.00 55 1019.7
20260831080108 16 0 0.0 1.6 0.00 0.00 0.00 56 1019.7
20260831075545 16 0 0.0 1.6 0.00 0.00 0.00 56 1019.8
20260831075047 16 0 0.0 1.6 0.00 0.00 0.00 56 1019.8
20260831074602 16 0 0.0 1.6 0.00 0.00 0.00 56 1019.8
20260831074047 16 0 0.0 3.2 0.00 0.00 0.00 56 1019.9
20260831073546 16 0 0.0 3.2 0.00 0.00 0.00 58 1019.9
20260831073108 16 148 0.0 3.2 0.00 0.00 0.00 58 1019.8
20260831072545 16 0 0.0 1.6 0.00 0.00 0.00 56 1019.9
20260831072044 16 0 0.0 1.6 0.00 0.00 0.00 55 1019.8
20260831071603 16 0 0.0 1.6 0.00 0.00 0.00 57 1019.8
20260831071046 16 0 0.0 1.6 0.00 0.00 0.00 58 1019.9
20260831070547 16 0 0.0 1.6 0.00 0.00 0.00 57 1020.0
20260831070109 16 0 0.0 1.6 0.00 0.00 0.00 57 1019.9
20260831065544 16 0 0.0 1.6 0.00 0.00 0.00 57 1020.0
20260831065048 16 0 0.0 0.0 0.00 0.00 0.00 57 1020.0
20260831064605 16 0 0.0 1.6 0.00 0.00 0.00 56 1019.9
20260831064050 16 0 0.0 1.6 0.00 0.00 0.00 56 1019.9
20260831063547 16 0 0.0 1.6 0.00 0.00 0.00 57 1019.9
20260831063105 16 0 0.0 1.6 0.00 0.00 0.00 57 1019.8
20260831062545 16 0 0.0 1.6 0.00 0.00 0.00 57 1019.8
20260831062048 17 0 0.0 1.6 0.00 0.00 0.00 57 1019.7
20260831061608 17 0 0.0 0.0 0.00 0.00 0.00 56 1019.8
20260831061049 16 0 0.0 1.6 0.00 0.00 0.00 56 1019.7
20260831060547 17 0 0.0 1.6 0.00 0.00 0.00 56 1019.6
20260831060105 17 0 0.0 1.6 0.00 0.00 0.00 57 1019.7
20260831055547 17 0 0.0 1.6 0.00 0.00 0.00 57 1019.7
20260831055047 17 0 0.0 1.6 0.00 0.00 0.00 57 1019.7
20260831054611 17 0 0.0 0.0 0.00 0.00 0.00 58 1019.7
20260831054048 17 0 0.0 0.0 0.00 0.00 0.00 59 1019.7
20260831053545 17 0 0.0 1.6 0.00 0.00 0.00 60 1019.7
20260831053102 17 0 0.0 1.6 0.00 0.00 0.00 60 1019.7
20260831052549 17 0 0.0 0.0 0.00 0.00 0.00 62 1019.7
20260831052044 17 0 0.0 1.6 0.00 0.00 0.00 62 1019.7
20260831051611 17 0 0.0 1.6 0.00 0.00 0.00 63 1019.7
20260831051043 17 0 0.0 3.2 0.00 0.00 0.00 63 1019.7
20260831050543 17 0 0.0 3.2 0.00 0.00 0.00 63 1019.7
20260831050107 17 148 0.0 1.6 0.00 0.00 0.00 63 1019.7
20260831045543 17 0 0.0 0.0 0.00 0.00 0.00 63 1019.7
20260831045044 17 0 0.0 1.6 0.00 0.00 0.00 64 1019.8
20260831044613 17 0 0.0 1.6 0.00 0.00 0.00 64 1019.8
20260831044047 17 0 0.0 1.6 0.00 0.00 0.00 65 1019.8
20260831043543 17 0 0.0 3.2 0.00 0.00 0.00 63 1019.9
20260831043101 17 0 0.0 3.2 0.00 0.00 0.00 65 1019.7
20260831042549 17 148 0.0 3.2 0.00 0.00 0.00 68 1019.8
20260831042048 17 0 0.0 1.6 0.00 0.00 0.00 67 1019.8
20260831041606 17 0 0.0 1.6 0.00 0.00 0.00 69 1019.7
20260831041047 17 0 0.0 1.6 0.00 0.00 0.00 69 1019.7
20260831040545 18 0 0.0 1.6 0.00 0.00 0.00 70 1019.7
20260831040107 18 0 0.0 1.6 0.00 0.00 0.00 71 1019.7
20260831035543 18 0 0.0 1.6 0.00 0.00 0.00 70 1019.6
20260831035048 18 0 0.0 1.6 0.00 0.00 0.00 71 1019.6
20260831034601 18 0 0.0 1.6 0.00 0.00 0.00 70 1019.5
20260831034047 18 0 0.0 1.6 0.00 0.00 0.00 69 1019.4
20260831033544 18 0 0.0 0.0 0.00 0.00 0.00 69 1019.3
20260831033106 18 0 0.0 0.0 0.00 0.00 0.00 69 1019.3
20260831032547 19 0 0.0 3.2 0.00 0.00 0.00 69 1019.3
20260831032050 19 0 0.0 3.2 0.00 0.00 0.00 68 1019.3
20260831031558 19 0 0.0 1.6 0.00 0.00 0.00 68 1019.2
20260831031046 20 0 0.0 1.6 0.00 0.00 0.00 68 1019.1
20260831030546 20 0 0.0 1.6 0.00 0.00 0.00 68 1019.1
20260831030110 20 148 0.0 1.6 0.00 0.00 0.00 68 1019.1
20260831025547 20 0 0.0 3.2 0.00 0.00 0.00 68 1019.1
20260831025049 20 0 0.0 4.8 0.00 0.00 0.00 67 1019.1
20260831024603 20 190 1.6 4.8 0.00 0.00 0.00 67 1019.1
20260831024046 20 0 0.0 6.4 0.00 0.00 0.00 66 1019.1
20260831023549 21 173 1.6 6.4 0.00 0.00 0.00 66 1019.2
20260831023100 21 186 0.0 4.8 0.00 0.00 0.00 65 1019.2
20260831022548 21 186 0.0 3.2 0.00 0.00 0.00 64 1019.1
20260831022046 21 186 0.0 4.8 0.00 0.00 0.00 64 1019.1
20260831021606 21 0 0.0 9.7 0.00 0.00 0.00 63 1019.1
20260831021048 22 0 0.0 9.7 0.00 0.00 0.00 62 1018.9
20260831020550 22 0 0.0 4.8 0.00 0.00 0.00 61 1019.0
20260831020100 22 195 0.0 4.8 0.00 0.00 0.00 61 1018.9
20260831015551 22 0 0.0 8.0 0.00 0.00 0.00 59 1018.8
20260831015046 22 304 1.6 8.0 0.00 0.00 0.00 58 1018.9
20260831014603 22 180 1.6 6.4 0.00 0.00 0.00 57 1018.8
20260831014046 23 321 1.6 6.4 0.00 0.00 0.00 55 1018.9
20260831013548 23 0 0.0 6.4 0.00 0.00 0.00 54 1018.8
20260831013111 23 0 0.0 4.8 0.00 0.00 0.00 53 1019.0
20260831012549 23 221 0.0 8.0 0.00 0.00 0.00 51 1018.9
20260831012048 23 0 0.0 8.0 0.00 0.00 0.00 51 1018.8
20260831011603 23 139 1.6 6.4 0.00 0.00 0.00 51 1018.9
20260831011049 23 190 1.6 6.4 0.00 0.00 0.00 51 1018.8
20260831010550 24 146 1.6 8.0 0.00 0.00 0.00 52 1018.8
20260831010106 24 0 1.6 8.0 0.00 0.00 0.00 50 1018.8
20260831005547 24 148 0.0 17.7 0.00 0.00 0.00 49 1018.9
20260831005044 25 138 3.2 17.7 0.00 0.00 0.00 47 1018.8
20260831004604 25 0 0.0 14.5 0.00 0.00 0.00 48 1018.9
20260831004045 25 0 3.2 14.5 0.00 0.00 0.00 47 1018.8
20260831003548 25 149 3.2 11.3 0.00 0.00 0.00 44 1018.9
20260831003106 25 82 0.0 16.1 0.00 0.00 0.00 45 1018.9
20260831002547 26 0 1.6 16.1 0.00 0.00 0.00 44 1018.9
20260831002047 26 152 1.6 16.1 0.00 0.00 0.00 42 1018.9
20260831001612 26 219 3.2 9.7 0.00 0.00 0.00 42 1019.0